Back to catalog

STARLINK-34932

AliveCommunicationsSSO
NORAD 65179·PAYLOAD·🇺🇸 United States

Launched Aug 14, 2025 from Vandenberg Space Force Base

Loading…

Next Passes (next 24 hours)

TLE

FreshSource: CelesTrak SupGP

Epoch: Sep 14, 2026, 21:30 UTC

1 65179C 25175F   26257.89631944  .00011698  00000+0  36323-3 0  2575
2 65179  97.2843 126.9405 0002123  93.8032 248.8747 15.33423956    15

Track STARLINK-34932 in real time with AllMySat

Download on the App Store